CW0987 Weather Reports


time (UTC)temp
C
wind
direction
speed
KPH
gust
KPH
rain 1hr
cm
rain 24hr
cm
rain mn
cm
humidity
%
barometer
mb
20260508023544 18 227 11.3 30.6 0.00 0.00 0.00 72 1012.7
20260508022543 19 242 16.1 27.4 0.00 0.00 0.00 71 1012.4
20260508022043 19 252 16.1 24.1 0.00 0.00 0.00 70 1012.4
20260508021543 19 271 14.5 24.1 0.00 0.00 0.00 70 1012.4
20260508020042 20 183 6.4 25.7 0.00 0.00 0.00 68 1012.4
20260508015542 20 230 9.7 25.7 0.00 0.00 0.00 67 1012.2
20260508015042 20 198 9.7 24.1 0.00 0.00 0.00 67 1012.2
20260508014542 20 233 11.3 22.5 0.00 0.00 0.00 66 1012.1
20260508013042 21 259 17.7 22.5 0.00 0.00 0.00 65 1012.1
20260508012611 21 202 12.9 22.5 0.00 0.00 0.00 65 1012.1
20260508012041 21 288 19.3 27.4 0.00 0.00 0.00 64 1012.1
20260508011541 21 232 17.7 32.2 0.00 0.00 0.00 64 1012.1
20260508011041 21 288 17.7 32.2 0.00 0.00 0.00 63 1012.1
20260508010541 21 264 25.7 25.7 0.00 0.00 0.00 63 1012.2
20260508010110 22 208 16.1 29.0 0.00 0.00 0.00 62 1012.1
20260508005540 22 277 20.9 29.0 0.00 0.00 0.00 61 1011.9
20260508005040 22 207 14.5 29.0 0.00 0.00 0.00 60 1011.9
20260508004039 22 272 29.0 32.2 0.00 0.00 0.00 60 1011.8
20260508003110 22 234 25.7 30.6 0.00 0.00 0.00 60 1011.8
20260508002539 22 241 19.3 24.1 0.00 0.00 0.00 59 1011.9
20260508002109 22 238 12.9 22.5 0.00 0.00 0.00 60 1011.9
20260508001609 22 243 19.3 22.5 0.00 0.00 0.00 59 1011.8
20260508000538 22 253 14.5 38.6 0.00 0.00 0.00 59 1011.8
20260508000108 22 263 17.7 35.4 0.00 0.00 0.00 60 1011.9
20260507235609 22 247 8.0 35.4 0.00 0.00 0.00 60 1012.0
20260507235038 22 223 19.3 30.6 0.00 0.00 0.00 59 1011.9
20260507234608 23 240 19.3 38.6 0.00 0.00 0.00 59 1012.0
20260507234107 23 250 22.5 38.6 0.00 0.00 0.00 58 1012.0
20260507233608 23 246 16.1 29.0 0.00 0.00 0.00 57 1012.2
20260507233107 23 269 6.4 29.0 0.00 0.00 0.00 57 1012.0
20260507232612 23 236 17.7 30.6 0.00 0.00 0.00 57 1012.1
20260507232107 23 236 14.5 35.4 0.00 0.00 0.00 58 1012.0
20260507231607 23 229 24.1 35.4 0.00 0.00 0.00 57 1011.9
20260507231107 23 292 11.3 33.8 0.00 0.00 0.00 56 1011.9
20260507230607 23 239 17.7 33.8 0.00 0.00 0.00 56 1012.1
20260507225606 23 284 27.4 37.0 0.00 0.00 0.00 56 1012.0
20260507225107 23 286 25.7 37.0 0.00 0.00 0.00 56 1012.1
20260507224606 23 265 22.5 33.8 0.00 0.00 0.00 55 1012.1
20260507224106 23 258 9.7 33.8 0.00 0.00 0.00 55 1012.2
20260507223105 24 211 19.3 30.6 0.00 0.00 0.00 53 1012.3
20260507222606 24 214 16.1 30.6 0.00 0.00 0.00 53 1012.3
20260507222105 24 285 11.3 30.6 0.00 0.00 0.00 53 1012.3
20260507221105 23 270 12.9 30.6 0.00 0.00 0.00 54 1012.5
20260507220604 23 200 19.3 30.6 0.00 0.00 0.00 53 1012.6
20260507220104 23 205 12.9 32.2 0.00 0.00 0.00 54 1012.6
20260507215604 24 290 20.9 32.2 0.00 0.00 0.00 54 1012.6
20260507215104 24 273 17.7 29.0 0.00 0.00 0.00 54 1012.7
20260507214604 24 200 12.9 30.6 0.00 0.00 0.00 55 1012.8
20260507214104 23 268 16.1 30.6 0.00 0.00 0.00 54 1012.9
20260507213103 25 294 20.9 25.7 0.00 0.00 0.00 54 1013.0
20260507212603 24 201 14.5 37.0 0.00 0.00 0.00 56 1013.0
20260507211603 24 264 22.5 29.0 0.00 0.00 0.00 55 1013.0
20260507211103 24 238 16.1 29.0 0.00 0.00 0.00 55 1013.0
20260507210603 24 281 14.5 30.6 0.00 0.00 0.00 55 1013.0
20260507210103 24 211 8.0 30.6 0.00 0.00 0.00 55 1013.1
20260507205603 24 257 29.0 29.0 0.00 0.00 0.00 55 1013.2
20260507205102 24 183 11.3 27.4 0.00 0.00 0.00 55 1013.3
20260507204603 24 240 17.7 29.0 0.00 0.00 0.00 56 1013.3
20260507203602 24 245 6.4 29.0 0.00 0.00 0.00 54 1013.3
20260507203102 24 224 11.3 29.0 0.00 0.00 0.00 54 1013.2
20260507202101 24 282 22.5 29.0 0.00 0.00 0.00 52 1013.4
20260507201601 24 263 19.3 27.4 0.00 0.00 0.00 52 1013.4
20260507201101 24 297 20.9 27.4 0.00 0.00 0.00 52 1013.5
20260507195600 24 281 20.9 22.5 0.00 0.00 0.00 52 1013.8
20260507194601 24 255 14.5 22.5 0.00 0.00 0.00 53 1013.8
20260507194100 24 315 8.0 24.1 0.00 0.00 0.00 52 1013.8
20260507193600 24 260 17.7 24.1 0.00 0.00 0.00 53 1013.9
20260507192600 24 219 8.0 17.7 0.00 0.00 0.00 53 1014.0
20260507191600 23 298 8.0 16.1 0.00 0.00 0.00 53 1014.1
20260507191059 23 241 8.0 16.1 0.00 0.00 0.00 54 1014.1
20260507190559 23 252 6.4 19.3 0.00 0.00 0.00 53 1014.2
20260507185058 23 244 6.4 19.3 0.00 0.00 0.00 54 1014.5
20260507184559 23 303 3.2 19.3 0.00 0.00 0.00 55 1014.5
20260507184058 23 259 11.3 19.3 0.00 0.00 0.00 55 1014.5
20260507183558 23 341 9.7 14.5 0.00 0.00 0.00 55 1014.6
20260507182558 23 27 8.0 17.7 0.00 0.00 0.00 55 1014.5
20260507182057 23 185 4.8 17.7 0.00 0.00 0.00 56 1014.5
20260507181558 23 257 14.5 17.7 0.00 0.00 0.00 56 1014.5
20260507181057 23 320 4.8 16.1 0.00 0.00 0.00 56 1014.6
20260507180558 23 9 14.5 16.1 0.00 0.00 0.00 55 1014.7
20260507180057 23 20 4.8 12.9 0.00 0.00 0.00 56 1014.7
20260507175557 23 290 4.8 12.9 0.00 0.00 0.00 56 1014.8
20260507175057 22 5 4.8 12.9 0.00 0.00 0.00 57 1014.9
20260507174556 22 346 4.8 12.9 0.00 0.00 0.00 57 1014.9
20260507174056 22 139 3.2 8.0 0.00 0.00 0.00 58 1014.8
20260507173556 22 36 4.8 8.0 0.00 0.00 0.00 58 1014.8
20260507173056 22 67 6.4 8.0 0.00 0.00 0.00 59 1014.8
20260507171555 21 309 3.2 8.0 0.00 0.00 0.00 60 1014.9
20260507171055 21 5 1.6 8.0 0.00 0.00 0.00 61 1015.0
20260507170556 21 302 0.0 8.0 0.00 0.00 0.00 62 1015.0
20260507170055 21 345 4.8 9.7 0.00 0.00 0.00 63 1015.0
20260507165555 21 55 0.0 9.7 0.00 0.00 0.00 63 1015.0
20260507165055 21 68 3.2 9.7 0.00 0.00 0.00 65 1015.0
20260507164554 20 13 1.6 9.7 0.00 0.00 0.00 66 1015.0
20260507164055 20 296 4.8 6.4 0.00 0.00 0.00 65 1015.0
20260507162554 19 327 3.2 8.0 0.00 0.00 0.00 68 1015.2
20260507161553 19 76 3.2 6.4 0.00 0.00 0.00 68 1015.2
20260507161054 18 94 1.6 6.4 0.00 0.00 0.00 69 1015.1
20260507160553 18 67 0.0 4.8 0.00 0.00 0.00 69 1015.1
20260507160053 18 78 1.6 6.4 0.00 0.00 0.00 70 1015.1
20260507155553 18 94 1.6 6.4 0.00 0.00 0.00 71 1015.2
20260507154553 18 342 4.8 4.8 0.00 0.00 0.00 72 1015.3
20260507153552 17 59 4.8 6.4 0.00 0.00 0.00 72 1015.4
20260507153052 17 26 3.2 6.4 0.00 0.00 0.00 71 1015.4
20260507152552 18 81 3.2 4.8 0.00 0.00 0.00 71 1015.4
20260507152052 17 76 1.6 4.8 0.00 0.00 0.00 72 1015.5
20260507151552 17 115 1.6 3.2 0.00 0.00 0.00 73 1015.4
20260507150552 17 92 0.0 3.2 0.00 0.00 0.00 77 1015.3
20260507150051 16 66 0.0 3.2 0.00 0.00 0.00 77 1015.2
20260507145551 16 66 1.6 4.8 0.00 0.00 0.00 77 1015.4
20260507145051 16 63 3.2 4.8 0.00 0.00 0.00 77 1015.3
20260507144550 16 80 1.6 3.2 0.00 0.00 0.00 79 1015.3
20260507144050 16 115 0.0 1.6 0.00 0.00 0.00 80 1015.3
20260507143551 15 115 0.0 1.6 0.00 0.00 0.00 80 1015.2
20260507143050 15 115 0.0 1.6 0.00 0.00 0.00 81 1015.2
20260507142550 15 120 0.0 1.6 0.00 0.00 0.00 81 1015.2
20260507142051 15 37 1.6 1.6 0.00 0.00 0.00 83 1015.1
20260507141550 15 200 0.0 0.0 0.00 0.00 0.00 85 1015.1
20260507141050 15 200 0.0 0.0 0.00 0.00 0.00 86 1015.0
20260507140550 14 200 0.0 0.0 0.00 0.00 0.00 87 1015.1
20260507140049 13 329 0.0 0.0 0.00 0.00 0.00 89 1014.9
20260507135549 13 329 0.0 0.0 0.00 0.00 0.00 89 1015.0
20260507135049 12 269 0.0 0.0 0.00 0.00 0.00 88 1014.9
20260507134549 12 269 0.0 0.0 0.00 0.00 0.00 88 1014.8
20260507134049 12 269 0.0 0.0 0.00 0.00 0.00 88 1014.8
20260507133548 12 269 0.0 0.0 0.00 0.00 0.00 88 1014.6
20260507133048 12 269 0.0 0.0 0.00 0.00 0.00 87 1014.6
20260507132048 12 172 0.0 0.0 0.00 0.00 0.00 87 1014.5
20260507131548 12 172 0.0 0.0 0.00 0.00 0.00 87 1014.6
20260507130047 12 261 0.0 0.0 0.00 0.00 0.00 87 1014.4
20260507125547 12 261 0.0 1.6 0.00 0.00 0.00 86 1014.5
20260507125047 12 237 0.0 1.6 0.00 0.00 0.00 86 1014.5
20260507124548 12 178 0.0 0.0 0.00 0.00 0.00 86 1014.5
20260507124047 12 178 0.0 0.0 0.00 0.00 0.00 85 1014.6
20260507123548 12 178 0.0 0.0 0.00 0.00 0.00 86 1014.5
20260507123047 12 178 0.0 1.6 0.00 0.00 0.00 86 1014.5
20260507122546 12 178 0.0 3.2 0.00 0.00 0.00 86 1014.5
20260507122047 12 178 0.0 3.2 0.00 0.00 0.00 86 1014.5
20260507121546 12 178 1.6 4.8 0.00 0.00 0.00 85 1014.5
20260507121046 12 178 3.2 4.8 0.00 0.00 0.00 85 1014.6
20260507120546 12 173 0.0 4.8 0.00 0.00 0.00 85 1014.7
20260507120045 12 173 1.6 4.8 0.00 0.00 0.00 84 1014.7
20260507115045 12 173 0.0 3.2 0.00 0.00 0.00 84 1014.8
20260507114545 12 173 1.6 3.2 0.00 0.00 0.00 85 1014.7
20260507114045 12 173 1.6 3.2 0.00 0.00 0.00 85 1014.7
20260507113545 12 173 0.0 3.2 0.00 0.00 0.00 84 1014.7
20260507113045 12 173 1.6 3.2 0.00 0.00 0.00 84 1014.7
20260507111544 12 185 0.0 3.2 0.00 0.00 0.00 85 1014.9
20260507111044 12 190 0.0 3.2 0.00 0.00 0.00 85 1014.9
20260507110544 12 190 0.0 3.2 0.00 0.00 0.00 85 1014.9
20260507110044 12 190 3.2 3.2 0.00 0.00 0.00 85 1014.9
20260507105543 12 190 0.0 0.0 0.00 0.00 0.00 84 1015.0
20260507105043 12 190 0.0 0.0 0.00 0.00 0.00 84 1015.1
20260507104543 12 190 0.0 0.0 0.00 0.00 0.00 84 1015.1
20260507103042 12 190 0.0 0.0 0.00 0.00 0.00 82 1015.1
20260507102542 13 190 0.0 0.0 0.00 0.00 0.00 82 1015.1
20260507102043 13 190 0.0 0.0 0.00 0.00 0.00 82 1015.1
20260507101542 13 190 0.0 0.0 0.00 0.00 0.00 81 1015.2
20260507101042 13 190 0.0 0.0 0.00 0.00 0.00 81 1015.2
20260507100042 13 190 0.0 0.0 0.00 0.00 0.00 81 1015.3
20260507095542 13 190 0.0 4.8 0.00 0.00 0.00 80 1015.3
20260507095041 13 190 0.0 4.8 0.00 0.00 0.00 80 1015.3
20260507094541 13 190 3.2 3.2 0.00 0.00 0.00 80 1015.3
20260507093041 13 190 0.0 0.0 0.00 0.00 0.00 79 1015.6
20260507092540 13 190 0.0 3.2 0.00 0.00 0.00 78 1015.6
20260507091540 13 190 3.2 4.8 0.00 0.00 0.00 78 1015.6
20260507091040 13 190 3.2 4.8 0.00 0.00 0.00 78 1015.8
20260507090540 13 190 1.6 4.8 0.00 0.00 0.00 77 1015.6
20260507090040 13 190 1.6 4.8 0.00 0.00 0.00 78 1015.7
20260507085540 13 192 3.2 4.8 0.00 0.00 0.00 78 1015.7
20260507084539 13 203 3.2 4.8 0.00 0.00 0.00 78 1015.9
20260507084039 13 203 0.0 0.0 0.00 0.00 0.00 78 1016.0
20260507083539 13 203 0.0 0.0 0.00 0.00 0.00 78 1015.9
20260507083039 13 203 0.0 0.0 0.00 0.00 0.00 78 1016.0
20260507082539 13 203 0.0 0.0 0.00 0.00 0.00 78 1015.9
20260507082038 13 203 0.0 0.0 0.00 0.00 0.00 78 1016.0
20260507081538 13 203 0.0 0.0 0.00 0.00 0.00 78 1016.0
20260507081038 13 203 0.0 0.0 0.00 0.00 0.00 78 1016.0
20260507080538 14 203 0.0 6.4 0.00 0.00 0.00 78 1016.2
20260507075537 13 204 6.4 6.4 0.00 0.00 0.00 80 1016.1
20260507075038 13 199 6.4 6.4 0.00 0.00 0.00 80 1016.0
20260507074037 13 185 0.0 4.8 0.00 0.00 0.00 80 1016.0
20260507073607 13 185 0.0 4.8 0.00 0.00 0.00 80 1016.0
20260507072536 13 207 1.6 4.8 0.00 0.00 0.00 80 1016.1
20260507072107 13 207 3.2 4.8 0.00 0.00 0.00 80 1016.1
20260507071606 13 207 1.6 4.8 0.00 0.00 0.00 80 1016.1
20260507071106 13 207 0.0 3.2 0.00 0.00 0.00 80 1016.3
20260507070606 13 207 0.0 3.2 0.00 0.00 0.00 79 1016.2
20260507070106 13 207 1.6 3.2 0.00 0.00 0.00 79 1016.2
20260507065606 13 207 1.6 3.2 0.00 0.00 0.00 79 1016.2
20260507064606 13 252 1.6 1.6 0.00 0.00 0.00 78 1016.4
20260507063606 14 221 0.0 3.2 0.00 0.00 0.00 77 1016.4
20260507063105 14 221 1.6 4.8 0.00 0.00 0.00 77 1016.4
20260507062605 14 221 3.2 4.8 0.00 0.00 0.00 76 1016.4
20260507062104 15 177 4.8 4.8 0.00 0.00 0.00 76 1016.3
20260507061105 15 101 0.0 4.8 0.00 0.00 0.00 76 1016.4
20260507060604 15 101 3.2 8.0 0.00 0.00 0.00 76 1016.3
20260507055104 15 191 6.4 12.9 0.00 0.00 0.00 76 1016.1
20260507054103 15 242 6.4 12.9 0.00 0.00 0.00 75 1016.2
20260507053604 15 223 3.2 12.9 0.00 0.00 0.00 75 1016.2
20260507053103 15 229 6.4 12.9 0.00 0.00 0.00 75 1016.2
20260507052603 15 240 6.4 9.7 0.00 0.00 0.00 74 1016.1
20260507052103 15 201 6.4 11.3 0.00 0.00 0.00 74 1016.1
20260507051103 16 240 4.8 16.1 0.00 0.00 0.00 73 1016.1
20260507050602 16 191 9.7 16.1 0.00 0.00 0.00 73 1016.1
20260507045602 16 205 6.4 14.5 0.00 0.00 0.00 73 1015.9
20260507045103 16 230 6.4 14.5 0.00 0.00 0.00 73 1015.9
20260507044601 16 193 6.4 16.1 0.00 0.00 0.00 73 1015.9
20260507044103 16 270 6.4 17.7 0.00 0.00 0.00 73 1015.9
20260507043601 16 298 6.4 19.3 0.00 0.00 0.00 73 1015.9
20260507043102 16 272 6.4 19.3 0.00 0.00 0.00 72 1015.8
20260507042601 16 274 4.8 16.1 0.00 0.00 0.00 72 1015.8
20260507041601 16 225 4.8 17.7 0.00 0.00 0.00 71 1015.8
20260507041101 16 254 4.8 17.7 0.00 0.00 0.00 72 1015.8
20260507040101 16 223 9.7 12.9 0.00 0.00 0.00 72 1015.7
20260507035600 16 243 6.4 16.1 0.00 0.00 0.00 72 1015.5
20260507035100 16 246 6.4 16.1 0.00 0.00 0.00 71 1015.5
20260507034600 17 223 12.9 16.1 0.00 0.00 0.00 71 1015.5
20260507034059 17 225 9.7 17.7 0.00 0.00 0.00 71 1015.5
20260507033059 17 232 11.3 14.5 0.00 0.00 0.00 70 1015.4
20260507032559 17 225 8.0 17.7 0.00 0.00 0.00 69 1015.4
20260507031559 17 228 9.7 19.3 0.00 0.00 0.00 69 1015.3
20260507031059 17 229 6.4 22.5 0.00 0.00 0.00 68 1015.2
20260507030558 17 197 9.7 22.5 0.00 0.00 0.00 68 1015.1
20260507025058 17 219 9.7 20.9 0.00 0.00 0.00 68 1014.9
20260507024558 17 220 14.5 20.9 0.00 0.00 0.00 68 1014.8
20260507024058 18 261 14.5 20.9 0.00 0.00 0.00 67 1014.8